Location: Boleita
(10.4833°N, 66.8167°W)
Time: 04:34:54
(UTC+00:00)

Cosmos 1536 Rocket - Pass Details

Date: 03 August 2024
Orbit: 602 x 627 km, 82.5° (Epoch: 08 September)

Event Time Altitude Azimuth Distance (km) Brightness Sun altitude
Rises 23:21:20 0° 171° (S) 2,846 6.7 -8.1°
Reaches altitude 10° 23:23:38 10° 164° (SSE) 1,942 5.8 -8.7°
Maximum altitude 23:27:41 42° 93° (E) 867 3.9 -9.6°
Drops below altitude 10° 23:31:43 10° 22° (NNE) 1,939 6.1 -10.5°
Sets 23:34:01 0° 15° (NNE) 2,843 7.0 -11.1°
